| time (UTC) | temp C | wind direction | speed KPH | gust KPH | rain 1hr cm | rain 24hr cm | rain mn cm | humidity % | barometer mb |
| 20260507051521 | 5 | 219 | 0.0 | 1.6 | 0.00 | 0.00 | 0.00 | 94 | 1014.9 |
| 20260507050036 | 3 | 219 | 0.0 | 0.0 | 0.00 | 0.00 | 0.00 | 93 | 1014.8 |
| 20260507044519 | 2 | 219 | 0.0 | 0.0 | 0.00 | 0.00 | 0.00 | 93 | 1014.7 |
| 20260507043008 | 2 | 219 | 0.0 | 0.0 | 0.00 | 0.00 | 0.00 | 93 | 1014.6 |
| 20260507041505 | 1 | 219 | 0.0 | 0.0 | 0.00 | 0.00 | 0.00 | 93 | 1014.5 |
| 20260507040002 | 1 | 219 | 0.0 | 0.0 | 0.00 | 0.00 | 0.00 | 93 | 1014.4 |
| 20260507034607 | 1 | 219 | 0.0 | 0.0 | 0.00 | 0.00 | 0.00 | 93 | 1014.4 |
| 20260507033102 | 1 | 219 | 0.0 | 0.0 | 0.00 | 0.00 | 0.00 | 92 | 1014.3 |
| 20260507031543 | 0 | 219 | 0.0 | 0.0 | 0.00 | 0.00 | 0.00 | 92 | 1014.2 |
| 20260507030044 | 0 | 219 | 0.0 | 0.0 | 0.00 | 0.00 | 0.00 | 92 | 1014.2 |
| 20260507024545 | 0 | 219 | 0.0 | 0.0 | 0.00 | 0.00 | 0.00 | 92 | 1014.0 |
| 20260507023038 | 1 | 219 | 0.0 | 0.0 | 0.00 | 0.00 | 0.00 | 92 | 1014.0 |
| 20260507021548 | 1 | 219 | 0.0 | 0.0 | 0.00 | 0.00 | 0.00 | 92 | 1013.9 |
| 20260507020034 | 1 | 219 | 0.0 | 0.0 | 0.00 | 0.00 | 0.00 | 91 | 1013.9 |
| 20260507014532 | 1 | 219 | 0.0 | 0.0 | 0.00 | 0.00 | 0.00 | 91 | 1013.7 |
| 20260507013033 | 2 | 219 | 0.0 | 0.0 | 0.00 | 0.00 | 0.00 | 91 | 1013.6 |
| 20260507011522 | 2 | 219 | 0.0 | 0.0 | 0.00 | 0.00 | 0.00 | 91 | 1013.6 |
| 20260507010026 | 2 | 219 | 0.0 | 0.0 | 0.00 | 0.00 | 0.00 | 91 | 1013.5 |
| 20260507004509 | 3 | 219 | 0.0 | 0.0 | 0.00 | 0.00 | 0.00 | 91 | 1013.5 |
| 20260507003007 | 3 | 219 | 0.0 | 0.0 | 0.00 | 0.00 | 0.00 | 90 | 1013.5 |
| 20260507001506 | 3 | 219 | 0.0 | 1.6 | 0.00 | 0.00 | 0.00 | 91 | 1013.4 |
| 20260507000003 | 3 | 219 | 0.0 | 0.0 | 0.00 | 0.00 | 0.00 | 90 | 1013.4 |
| 20260506234502 | 3 | 219 | 0.0 | 3.2 | 0.00 | 0.00 | 0.00 | 90 | 1013.2 |
| 20260506233002 | 4 | 219 | 0.0 | 1.6 | 0.00 | 0.00 | 0.00 | 90 | 1013.2 |
| 20260506231549 | 3 | 219 | 0.0 | 1.6 | 0.00 | 0.00 | 0.00 | 89 | 1013.2 |
| 20260506230050 | 3 | 219 | 0.0 | 0.0 | 0.00 | 0.00 | 0.00 | 88 | 1013.2 |
| 20260506224547 | 4 | 219 | 0.0 | 1.6 | 0.00 | 0.00 | 0.00 | 87 | 1013.2 |
| 20260506223048 | 5 | 219 | 0.0 | 1.6 | 0.00 | 0.00 | 0.00 | 87 | 1013.3 |
| 20260506221543 | 5 | 219 | 0.0 | 0.0 | 0.00 | 0.00 | 0.00 | 86 | 1013.2 |
| 20260506220040 | 5 | 219 | 0.0 | 1.6 | 0.00 | 0.00 | 0.00 | 85 | 1013.2 |
| 20260506214541 | 5 | 219 | 0.0 | 3.2 | 0.00 | 0.00 | 0.00 | 84 | 1013.1 |
| 20260506213036 | 5 | 219 | 0.0 | 1.6 | 0.00 | 0.00 | 0.00 | 82 | 1013.0 |
| 20260506211515 | 6 | 219 | 0.0 | 1.6 | 0.00 | 0.00 | 0.00 | 80 | 1012.9 |
| 20260506210012 | 6 | 219 | 0.0 | 3.2 | 0.00 | 0.00 | 0.00 | 78 | 1012.8 |
| 20260506204601 | 6 | 202 | 0.0 | 1.6 | 0.00 | 0.00 | 0.00 | 76 | 1012.7 |
| 20260506203055 | 7 | 202 | 0.0 | 4.8 | 0.00 | 0.00 | 0.00 | 74 | 1012.6 |
| 20260506201557 | 7 | 198 | 0.0 | 0.0 | 0.00 | 0.00 | 0.00 | 71 | 1012.4 |
| 20260506200108 | 7 | 198 | 0.0 | 0.0 | 0.00 | 0.00 | 0.00 | 69 | 1012.4 |
| 20260506194603 | 7 | 198 | 0.0 | 1.6 | 0.00 | 0.00 | 0.00 | 65 | 1012.2 |
| 20260506193051 | 8 | 198 | 0.0 | 1.6 | 0.00 | 0.00 | 0.00 | 64 | 1012.2 |
| 20260506191549 | 8 | 198 | 0.0 | 0.0 | 0.00 | 0.00 | 0.00 | 61 | 1012.0 |
| 20260506190048 | 9 | 198 | 0.0 | 0.0 | 0.00 | 0.00 | 0.00 | 58 | 1011.9 |
| 20260506184529 | 10 | 198 | 0.0 | 0.0 | 0.00 | 0.00 | 0.00 | 55 | 1011.7 |
| 20260506183027 | 10 | 360 | 0.0 | 6.4 | 0.00 | 0.00 | 0.00 | 52 | 1011.5 |
| 20260506181520 | 11 | 360 | 0.0 | 8.0 | 0.00 | 0.00 | 0.00 | 49 | 1011.2 |
| 20260506180015 | 11 | 360 | 1.6 | 9.7 | 0.00 | 0.00 | 0.00 | 49 | 1011.2 |
| 20260506174511 | 11 | 360 | 0.0 | 9.7 | 0.00 | 0.00 | 0.00 | 48 | 1011.1 |
| 20260506173011 | 11 | 360 | 0.0 | 11.3 | 0.00 | 0.00 | 0.00 | 47 | 1011.0 |
| 20260506171518 | 11 | 360 | 1.6 | 9.7 | 0.00 | 0.00 | 0.00 | 44 | 1010.9 |
| 20260506170009 | 12 | 360 | 1.6 | 11.3 | 0.00 | 0.00 | 0.00 | 43 | 1010.9 |
| 20260506164508 | 12 | 97 | 0.0 | 12.9 | 0.00 | 0.00 | 0.00 | 42 | 1010.8 |
| 20260506163007 | 12 | 360 | 4.8 | 16.1 | 0.00 | 0.00 | 0.00 | 41 | 1010.8 |
| 20260506161603 | 11 | 152 | 1.6 | 9.7 | 0.00 | 0.00 | 0.00 | 43 | 1010.8 |
| 20260506160055 | 11 | 71 | 0.0 | 0.0 | 0.00 | 0.00 | 0.00 | 61 | 1010.9 |
| 20260506154555 | 12 | 71 | 0.0 | 4.8 | 0.00 | 0.00 | 0.00 | 65 | 1010.9 |
| 20260506153052 | 12 | 342 | 0.0 | 6.4 | 0.00 | 0.00 | 0.00 | 63 | 1010.9 |
| 20260506151604 | 12 | 23 | 0.0 | 3.2 | 0.00 | 0.00 | 0.00 | 64 | 1010.9 |
| 20260506150050 | 13 | 360 | 0.0 | 4.8 | 0.00 | 0.00 | 0.00 | 64 | 1010.8 |
| 20260506144548 | 12 | 286 | 0.0 | 4.8 | 0.00 | 0.00 | 0.00 | 68 | 1010.8 |
| 20260506143053 | 11 | 313 | 0.0 | 8.0 | 0.00 | 0.00 | 0.00 | 70 | 1010.8 |
| 20260506141530 | 11 | 296 | 0.0 | 3.2 | 0.00 | 0.00 | 0.00 | 69 | 1010.7 |
| 20260506140035 | 12 | 267 | 0.0 | 4.8 | 0.00 | 0.00 | 0.00 | 70 | 1010.7 |
| 20260506134518 | 12 | 286 | 0.0 | 1.6 | 0.00 | 0.00 | 0.00 | 69 | 1010.6 |
| 20260506133021 | 12 | 360 | 0.0 | 6.4 | 0.00 | 0.00 | 0.00 | 70 | 1010.5 |
| 20260506131522 | 11 | 244 | 0.0 | 6.4 | 0.00 | 0.00 | 0.00 | 71 | 1010.4 |
| 20260506130017 | 12 | 17 | 0.0 | 6.4 | 0.00 | 0.00 | 0.00 | 69 | 1010.3 |
| 20260506124514 | 12 | 333 | 0.0 | 3.2 | 0.00 | 0.00 | 0.00 | 66 | 1010.3 |
| 20260506123016 | 13 | 339 | 0.0 | 4.8 | 0.00 | 0.00 | 0.00 | 63 | 1010.3 |
| 20260506121513 | 14 | 313 | 1.6 | 8.0 | 0.00 | 0.00 | 0.00 | 60 | 1010.2 |
| 20260506120010 | 13 | 355 | 0.0 | 6.4 | 0.00 | 0.00 | 0.00 | 62 | 1010.3 |
| 20260506114559 | 13 | 307 | 0.0 | 6.4 | 0.00 | 0.00 | 0.00 | 60 | 1010.4 |
| 20260506113106 | 13 | 40 | 0.0 | 6.4 | 0.00 | 0.00 | 0.00 | 62 | 1010.4 |
| 20260506111556 | 13 | 336 | 0.0 | 8.0 | 0.00 | 0.00 | 0.00 | 61 | 1010.4 |
| 20260506104608 | 12 | 355 | 0.0 | 4.8 | 0.00 | 0.00 | 0.00 | 63 | 1010.5 |
| 20260506103050 | 12 | 346 | 0.0 | 6.4 | 0.00 | 0.00 | 0.00 | 65 | 1010.5 |
| 20260506101554 | 12 | 299 | 1.6 | 6.4 | 0.00 | 0.00 | 0.00 | 63 | 1010.5 |
| 20260506100045 | 11 | 290 | 0.0 | 6.4 | 0.00 | 0.00 | 0.00 | 65 | 1010.5 |
| 20260506094527 | 11 | 313 | 0.0 | 4.8 | 0.00 | 0.00 | 0.00 | 64 | 1010.6 |
| 20260506093025 | 11 | 304 | 0.0 | 6.4 | 0.00 | 0.00 | 0.00 | 65 | 1010.5 |
| 20260506091517 | 11 | 360 | 0.0 | 4.8 | 0.00 | 0.00 | 0.00 | 63 | 1010.6 |
| 20260506090011 | 11 | 296 | 0.0 | 4.8 | 0.00 | 0.00 | 0.00 | 63 | 1010.6 |
| 20260506084515 | 10 | 317 | 0.0 | 4.8 | 0.00 | 0.00 | 0.00 | 61 | 1010.5 |
| 20260506083005 | 10 | 360 | 0.0 | 6.4 | 0.00 | 0.00 | 0.00 | 61 | 1010.5 |
| 20260506081506 | 10 | 30 | 0.0 | 6.4 | 0.00 | 0.00 | 0.00 | 62 | 1010.4 |
| 20260506073100 | 8 | 42 | 0.0 | 4.8 | 0.00 | 0.00 | 0.00 | 65 | 1010.5 |
| 20260506071541 | 8 | 30 | 1.6 | 6.4 | 0.00 | 0.00 | 0.00 | 62 | 1010.5 |
| 20260506061517 | 8 | 60 | 0.0 | 6.4 | 0.00 | 0.00 | 0.00 | 55 | 1010.8 |